#timestamp,LO_Frequency,Hit,StdDev 
1628395215.8,286047005.6,N
1628395235.6,286046998.6,N
1628395255.5,286047000.4,N
1628395275.3,286047003.8,N
1628395295.1,286047007.6,N
1628395315.9,286047008.1,N
1628395335.7,286047013.0,N
1628395355.6,286047012.0,N
1628395375.4,286047007.8,N
1628395395.2,286047008.8,N
1628395415.1,286047007.9,N
1628395416.0,286047007.9,N
1628395435.8,286047013.5,N
1628395455.6,286047014.2,N
1628395475.5,286047014.5,N
1628395495.3,286047018.6,N
1628395515.2,286047018.3,N
1628395535.9,286047014.5,N
1628395555.7,286047012.9,N
1628395575.6,286047011.7,N
1628395595.4,286047011.5,N
1628395615.2,286047010.3,N
1628395635.1,286047005.1,N
1628395636.0,286047005.1,N
1628395655.8,286047003.9,N
1628395675.7,286047003.6,N
1628395695.5,286047003.7,N
1628395715.3,286047002.8,N
1628395735.2,286047002.7,N
1628395755.0,286047009.2,N
1628395755.9,286047009.2,N
1628395775.7,286047009.3,N
1628395795.6,286047013.7,N
1628395815.4,286047016.8,Y
1628395835.3,286047006.0,P
1628395855.1,286047006.6,P
1628395856.0,286047006.6,P
1628395875.8,286047001.5,N
1628395895.7,286046999.5,N
1628395915.5,286046999.2,N
1628395935.3,286047001.7,N
1628395955.2,286047001.7,N
1628395975.0,286047001.5,N
1628395975.9,286047001.5,N
1628395995.8,286047001.4,N
1628396015.6,286047005.2,N
1628396035.4,286047005.6,N
1628396055.3,286047010.4,Y
1628396075.1,286047006.0,P
1628396095.8,286047002.5,N
1628396115.7,286047002.2,N
1628396135.5,286047004.5,N
1628396155.4,286047010.7,Y
1628396175.2,286047007.7,P
1628396195.0,286047013.5,P
1628396195.9,286047013.5,P
1628396215.8,286047009.7,N
1628396235.6,286047009.3,N
1628396255.5,286047009.9,N
1628396275.3,286047008.1,N
1628396295.1,286047010.5,Y
1628396315.9,286047003.0,P
1628396335.7,286047005.2,N
1628396355.6,286047005.0,N
1628396375.4,286047000.2,N
1628396395.2,286046999.8,N
1628396415.1,286046998.5,N
1628396416.0,286046998.5,N
1628396435.8,286046998.3,N
1628396455.7,286047007.4,N
1628396475.5,286047007.2,N
1628396495.3,286047000.6,N
1628396515.2,286046999.0,N
1628396535.0,286047001.2,N
1628396535.9,286047001.2,N
1628396555.8,286047006.5,N
1628396575.6,286047003.5,N
1628396595.4,286047007.6,N
1628396615.3,286047013.6,Y
1628396635.1,286047008.9,P
1628396655.9,286047006.8,N
1628396675.7,286047005.3,N
1628396695.5,286047006.0,N
1628396715.4,286047006.4,Y
1628396735.2,286046992.5,P
1628396755.0,286046994.8,N
1628396755.9,286046994.8,N
1628396775.8,286046994.0,N
1628396795.6,286046999.4,N
1628396815.5,286046996.4,N
1628396835.3,286046997.2,N
1628396855.1,286046996.1,N
1628396875.9,286046991.1,N
1628396895.7,286046985.5,Y
1628396915.5,286046995.7,P
1628396935.4,286046999.2,P
1628396955.2,286046994.4,P
1628396975.1,286046991.1,Y
1628396976.0,286046991.1,P
1628396995.8,286046998.9,N
1628397015.6,286046996.9,N
1628397035.5,286046996.6,N
1628397055.3,286046997.2,N
1628397075.2,286046997.2,N
1628397095.9,286047001.0,N
1628397115.7,286046997.0,N
1628397135.6,286047000.6,N
1628397155.4,286047000.6,N
1628397175.2,286047000.9,N
1628397195.1,286046998.5,N
1628397196.0,286046998.5,N
1628397215.8,286047003.8,N
1628397235.7,286047003.1,N
1628397255.5,286047005.2,N
1628397275.3,286047005.4,N
1628397295.2,286047004.9,N
1628397315.9,286047003.3,N
1628397335.7,286047006.9,N
1628397355.6,286047006.6,N
1628397375.4,286047006.4,N
1628397395.2,286047004.9,N
1628397415.1,286047010.7,N
1628397416.0,286047010.7,N
1628397435.8,286047011.6,N
1628397455.7,286047008.6,N
1628397475.5,286047000.1,N
1628397495.3,286047000.2,N
1628397515.2,286047002.4,N
1628397535.0,286047003.4,N
1628397535.9,286047003.4,N
1628397555.7,286047006.5,N
1628397575.6,286046999.7,N
1628397595.4,286047003.8,N
1628397615.3,286047003.5,N
1628397635.1,286047001.3,N
1628397636.0,286047001.3,N
1628397655.8,286047003.8,N
1628397675.7,286047003.3,N
1628397695.5,286047003.3,N
1628397715.3,286047003.8,N
1628397735.2,286047001.6,N
1628397755.0,286047001.5,N
1628397755.9,286047001.5,N
1628397775.8,286047004.1,N
1628397795.6,286047004.5,N
1628397815.4,286047006.0,N
1628397835.3,286047005.0,N
1628397855.1,286047002.0,N
1628397875.9,286047002.7,N
1628397895.7,286046999.2,N
1628397915.5,286046996.9,N
1628397935.4,286046998.5,N
1628397955.2,286047000.8,N
1628397975.0,286047003.6,N
1628397975.9,286047003.6,N
1628397995.8,286047005.0,N
1628398015.6,286047003.3,N
1628398035.5,286047005.4,N
1628398055.3,286047000.7,N
1628398075.1,286047001.1,N
1628398095.9,286046999.7,N
1628398115.7,286047002.7,N
1628398135.5,286047004.0,N
1628398155.4,286047002.2,N
1628398175.2,286047003.6,N
1628398195.1,286047004.8,N
1628398196.0,286047004.8,N
1628398215.8,286047006.3,N
1628398235.6,286047007.5,Y
1628398255.5,286047004.7,P
1628398275.3,286047005.0,P
1628398295.2,286047008.8,P
1628398315.9,286047000.5,N
1628398335.7,286046998.0,N
1628398355.6,286046996.4,N
1628398375.4,286046993.5,N
1628398395.2,286046998.2,N
1628398415.1,286047000.3,N
1628398416.0,286047000.3,N
1628398435.8,286047000.7,N
1628398455.7,286047000.7,N
1628398475.5,286046996.5,N
1628398495.3,286046993.6,N
1628398515.2,286046996.4,N
1628398535.0,286046994.1,N
1628398535.9,286046994.1,N
1628398555.8,286046994.0,N
1628398575.6,286046992.1,N
1628398595.4,286046990.7,N
1628398615.3,286046988.5,N
1628398635.1,286046991.4,N
1628398655.9,286046992.0,N
1628398675.7,286046997.0,N
1628398695.5,286046996.9,N
1628398715.4,286046998.0,N
1628398735.2,286046996.4,N
1628398755.0,286046993.0,N
1628398756.0,286046993.0,N
1628398775.8,286046991.3,N
1628398795.6,286046992.4,N
